Regional Weather Roundup
Issued by NWS Kansas City/Pleasant Hill, MO

Home | Current Version | Previous Version | Graphics & Text | Print | Product List | Glossary Off
Versions: 1 2 3 4 5 6 7 8 9 10 11 12 13 14 15 16 17 18 19 20 21 22 23 24 25 26 27 28 29 30 31 32 33 34 35 36 37 38 39 40 41 42 43 44 45 46 47 48 49 50

000
ASUS43 KEAX 310610
RWREAX

WEATHER ROUNDUP FOR EASTERN KANSAS AND NORTHWEST MISSOURI
NATIONAL WEATHER SERVICE KANSAS CITY/PLEASANT HILL MO
100 AM CDT THU JUL 31 2014

KSZ040-057-103>105-MOZ028-029-037-043-310700-
...KANSAS CITY METROPOLITAN AREA...

CITY           SKY/WX    TMP DP  RH WIND       PRES   REMARKS
K.C. INTL      PTCLDY    66  56  70 CALM      30.11S
6HR MIN TEMP:  66; 6HR MAX TEMP:  79;

K.C. DOWNTOWN  CLEAR     67  60  78 CALM      30.10R
6HR MIN TEMP:  67; 6HR MAX TEMP:  79;

LEES SUMMIT    CLEAR     65  61  87 SW3       30.11S
6HR MIN TEMP:  65; 6HR MAX TEMP:  78;

OLATHE - IXD   CLEAR     64  60  87 NW3       30.11S
6HR MIN TEMP:  64; 6HR MAX TEMP:  76;

OLATHE - OJC   CLEAR     62  60  93 CALM      30.10S
6HR MIN TEMP:  62; 6HR MAX TEMP:  74;

LAWRENCE       CLEAR     57  55  93 NW3       30.11S

$$

MOZ001>008-011>017-020>025-030>033-038>040-044>046-053-054-310700-
...NORTHERN AND CENTRAL MISSOURI...

CITY           SKY/WX    TMP DP  RH WIND       PRES   REMARKS
ST. JOSEPH     CLEAR     58  56  93 CALM      30.11S
6HR MIN TEMP:  58; 6HR MAX TEMP:  79;

MOSBY          CLEAR     61  61 100 CALM      30.10S
WHITEMAN AFB   NOT AVBL
CLINTON        FOG       61  61 100 CALM      30.10S VSB 3/4
SEDALIA        CLEAR     65  60  84 W3        30.10S
6HR MIN TEMP:  64; 6HR MAX TEMP:  75;

WARSAW         NOT AVBL
MARSHALL       CLEAR     64  64 100 W3        30.10F
CHILLICOTHE      N/A     61  57  87 CALM      30.11S
6HR MIN TEMP:  61; 6HR MAX TEMP:  81;

MOBERLY        CLEAR     61  54  77 CALM      30.11R
KIRKSVILLE     CLEAR     58  56  93 CALM      30.11S FOG
6HR MIN TEMP:  57; 6HR MAX TEMP:  78;


$$

MOZ041-047>049-056>058-063>065-088>090-097-310700-
...EASTERN AND SOUTHERN MISSOURI...

CITY           SKY/WX    TMP DP  RH WIND       PRES   REMARKS
ST. LOUIS INTL MOCLDY    73  59  61 CALM      30.08S
6HR MIN TEMP:  73; 6HR MAX TEMP:  81;

SPIRIT OF STL  MOCLDY    64  61  90 CALM      30.07R
COLUMBIA       CLEAR     66  60  81 CALM      30.10R
JEFFERSON CITY PTCLDY    64  59  83 CALM      30.09R
MEXICO         CLEAR    N/A N/A N/A CALM      30.10R
HANNIBAL       CLEAR     63  59  88 CALM      30.09F
ROLLA          MOCLDY    60  58  92 CALM      30.09R
LEBANON        PTCLDY    63  59  88 W5        30.12R
OSAGE BEACH    PTCLDY    61  57  88 CALM      30.10S
SPRINGFIELD    CLOUDY    67  65  93 N5        30.10S
BRANSON        CLOUDY    64  64 100 CALM      30.11S
NEVADA         FOG       61  61 100 CALM      30.11S VSB<1/4
JOPLIN         CLOUDY    66  65  96 CALM      30.10S
WEST PLAINS    CLOUDY    66  64  93 CALM      30.10F FOG

$$

IAZ060-094-KSZ022-034>040-054-083-096-NEZ052-066-093-310700-
...KANSAS...SOUTHEAST NEBRASKA AND IOWA...

CITY           SKY/WX    TMP DP  RH WIND       PRES   REMARKS
TOPEKA         PTCLDY    60  58  92 CALM      30.11F
6HR MIN TEMP:  60; 6HR MAX TEMP:  80;

MANHATTAN      CLEAR     60  58  92 CALM      30.13S
EMPORIA        FOG       61  61 100 NW3       30.12S VSB 3/4
CHANUTE        FOG       63  61  93 N3        30.11S VSB 1/4
WICHITA        PTCLDY    65  62  90 N3        30.13S
OMAHA          CLEAR     63  58  83 CALM      30.12R
LINCOLN        CLEAR     59  54  83 NE3       30.14R
FALLS CITY     PTCLDY    61  57  87 CALM      30.11S
LAMONI         CLEAR     61  55  81 NW3       30.11S
DES MOINES     CLEAR     67  56  67 CALM      30.09S

$$




USA.gov is the U.S. government's official web portal to all federal, state and local government web resources and services.